Regional Weather Roundup
Issued by NWS Newport/Morehead, NC

Current Version | Previous Version | Graphics & Text | Print | Product List | Glossary On
Versions: 1 2 3 4 5 6 7 8 9 10 11 12 13 14 15 16 17 18 19 20 21 22 23 24 25 26 27 28 29 30 31 32 33 34 35 36 37 38 39 40 41 42 43 44 45 46 47 48 49 50
000 ASUS42 KMHX 261625 RWRMHX WEATHER ROUNDUP FOR EASTERN NORTH CAROLINA NATIONAL WEATHER SERVICE NEWPORT/MOREHEAD CITY NC 1200 PM EDT SUN MAR 26 2017 NOTE: "FAIR" INDICATES FEW OR NO CLOUDS BELOW 12,000 FEET WITH NO SIGNIFICANT WEATHER AND/OR OBSTRUCTIONS TO VISIBILITY NCZ015>017-031-032-045>047-102-103-261700- NORTH COAST CITY SKY/WX TMP DP RH WIND PRES REMARKS EDENTON PTSUNNY 73 56 54 CALM 30.28F ELIZABETH CITY CLOUDY 71 55 56 S7 30.28F KITTY HAWK NOT AVBL MANTEO PTSUNNY 71 54 54 S8 30.29F $$ NCZ045>047-081-094-103-104-261700- CENTRAL COAST CITY SKY/WX TMP DP RH WIND PRES REMARKS FRISCO CLOUDY 74 55 51 S7 30.29S $$ NCZ095-097-098-100-101-261700- SOUTHERN COAST CITY SKY/WX TMP DP RH WIND PRES REMARKS BEAUFORT CLOUDY 74 54 49 S8 30.27F CEDAR ISLAND NOT AVBL JACKSONVILLE MOSUNNY 74 53 48 S15 30.25F PINEY ISLAND NOT AVBL WILMINGTON CLOUDY 72 56 57 S15G22 30.26R $$ NCZ011>013-027>030-043-044-078>080-089-090>093-098-261700- COASTAL PLAIN CITY SKY/WX TMP DP RH WIND PRES REMARKS AHOSKIE N/A 70 53 56 S6 30.27F CLINTON MOSUNNY 73 56 55 CALM 30.25F ELIZABETHTOWN PTSUNNY 74 51 45 S9 30.24F GOLDSBORO PTSUNNY 73 52 46 S7 30.23F GREENVILLE CLOUDY 73 52 46 S9 30.26F HAVELOCK CLOUDY 74 51 44 S12 30.27F KENANSVILLE CLOUDY 73 50 43 SE9 30.25F KINSTON CLOUDY 73 50 43 S9 30.27S NEW BERN CLOUDY 74 51 44 S10G17 30.27F RICHLANDS PTSUNNY 75 54 47 S8 30.26F ROCKY MOUNT PTSUNNY 71 55 56 S7 30.26F WASHINGTON CLOUDY 72 54 53 S7 30.27F WHITEVILLE PTSUNNY 75 50 40 S12 30.23F $$ AMZ130-135-150-152-154-156-158-170-250-252-270-ANZ085-086-088-633-658-670-261700- MARINE OBSERVATIONS STATION/POSITION TIME TEMP WIND PRES WAVE SWELL AIR SEA DIR/SP/G HT/PER HT/PER (UTC) (F) (DEG/KT/KT) (MB) (FT/S) (FT/S) CHESAPEAKE LIGHT NOT AVBL 64 E VA BEACH 1550 54 50 130/ 6/ 6 1026.1 2/ 8 2/ 8 DUCK 1600 59 48 120/ 9/ 10 1025.1 2 E DUCK 1600 50 N/A 2/20 OREGON INLET 1600 69 57 170/ 7/ 9 1025.8 13E OREGON INLT 1548 50 N/A 2/ 7 2/ 7 HATTERAS CG 1600 69 58 160/ 5/ 8 1025.4 DIAMOND BUOY 1550 69 74 160/ 10/ 12 1025.8 3/ 8 2/ 8 CAPE LOOKOUT 1600 67 150/ 5/ 6 1025.0 BEAUFORT LAB 1600 70 55 190/ 5/ 7 1024.3 30 SE NEW RVR IN 1608 68 120/ 2/ 4 1024.9 30 SE NEW RVR IN 1613 65 N/A 3/ 7 27 SE WRIGHTSVLE 1608 68 64 70/ 2/ 4 1023.6 5 SE WRIGHTSVLE 1608 63 58 110/ 6/ 10 1024.3 225 S CAPE HAT 1550 68 72 90/ 12/ 16 1025.0 5/10 3/10 41 SE CHARLESTON 1550 72 73 140/ 12/ 16 1023.0 4/ 9 3/ 9 $$

USA.gov is the U.S. government's official web portal to all federal, state and local government web resources and services.